[[{"header":{"parameterUnit":"m.s-1","parameterCategory":2,"la1":30.2991,"la2":30.254,"lo1":-89.0895,"lo2":-89.0444,"dx":0.0017,"dy":0.0017,"nx":28,"ny":28,"refTime":"2022-11-05T15:00:00:Z","depth":"0","parameterNumber":2,"parameterNumberName":"U-component_of_CURRENTS"},"data":[0,0,0,0,0,0,0,0,0,0,0,0,0,0,0,0,0,0,0,0,0,0,0,0,0,0,0,0,0,0,0,0,0,0,0,0,0,0,0,0,0,0,0,0,0,0,0,0,0,0,0,0,0,0,0,0,0,0,0.3039,0.3038,0,0.2919,0.2917,0.2915,0.2824,0.2823,0.2822,0.2822,0.2773,0.2772,0.2771,0,0,0,0,0,0,0,0,0,0,0,0,0,0.3141,0.314,0.3039,0.3038,0.3037,0.2919,0.2917,0.2915,0.2824,0.2823,0.2822,0.2822,0.2773,0.2772,0.2771,0,0,0,0,0,0,0,0,0,0,0,0,0,0.3064,0.3139,0.3039,0.2979,0.2972,0.2919,0.2917,0.2915,0.2824,0.2823,0.2822,0.2821,0.2773,0.2772,0.2771,0.2783,0,0,0.2768,0.2767,0,0,0,0,0,0,0,0,0.3069,0.306,0.2989,0.2983,0.2975,0.2887,0.2935,0.2875,0.2824,0.2878,0.2822,0.2821,0.282,0.2815,0.279,0.2781,0.2779,0.2768,0.2767,0.2767,0.2766,0,0,0,0,0,0,0,0.3074,0.3065,0.2989,0.2988,0.2979,0.2941,0.2929,0.2922,0.2855,0.2873,0.2867,0.2857,0.2816,0.2791,0.2788,0.2778,0.2768,0.2767,0.2766,0.2766,0.2776,0.2777,0,0,0,0,0,0,0.3097,0.307,0.2993,0.2985,0.3024,0.294,0.2927,0.2915,0.2853,0.2843,0.2858,0.2854,0.2793,0.279,0.2787,0.2811,0.2767,0.2766,0.2765,0.2775,0.2776,0.2777,0,0,0,0,0,0,0.31,0.3092,0.2998,0.3027,0.3013,0.294,0.2927,0.2913,0.2893,0.2842,0.2832,0.2854,0.2793,0.2788,0.2773,0.2808,0.2765,0.2764,0.2774,0.2776,0.2777,0.2852,0,0,0,0,0,0,0.3103,0.3093,0.3093,0.3029,0.3012,0.2972,0.2927,0.2911,0.289,0.2883,0.2836,0.2829,0.2791,0.2774,0.2772,0.2806,0.2763,0.2773,0.2775,0.2777,0.2848,0.2855,0.2862,0,0,0,0,0,0.3107,0.3102,0.3094,0.3085,0.3014,0.2973,0.296,0.2904,0.2891,0.2883,0.2845,0.2831,0.2784,0.2774,0.277,0.2805,0.2772,0.2774,0.2776,0.2845,0.2854,0.2862,0,0,0,0,0,0,0.3138,0.3091,0.308,0.306,0.3028,0.2958,0.2949,0.292,0.2882,0.2886,0.2835,0.2825,0.2826,0.2806,0.2796,0.2813,0.278,0.2782,0.2834,0.2842,0.2849,0.2933,0.2762,0,0,0,0,0,0.3152,0.3145,0.3093,0.3085,0.3073,0.3021,0.3,0.297,0.2929,0.2911,0.2872,0.2847,0.2832,0.2828,0.2804,0.2818,0.2851,0.284,0.2847,0.2853,0.2919,0.2965,0.2983,0.2784,0.2784,0.2784,0,0,0.3162,0.314,0.3134,0.3094,0.3068,0.3068,0.3006,0.2989,0.2996,0.2917,0.2912,0.2868,0.2838,0.2838,0.284,0.2828,0.2925,0.2856,0.2861,0.2925,0.2969,0.2989,0.3007,0.2786,0.2786,0.2785,0,0,0.3198,0.3166,0.3181,0.3168,0.3144,0.3108,0.3114,0.3056,0.3036,0.3024,0.2972,0.2955,0.2921,0.2905,0.2897,0.2939,0.2954,0.2925,0.3037,0.3079,0.3098,0.3114,0.3179,0.3201,0.2935,0.2935,0.2935,0,0.3216,0.3222,0.3179,0.3202,0.32,0.3139,0.3164,0.3139,0.3083,0.309,0.304,0.3009,0.2966,0.2998,0.3006,0.2961,0.2998,0.3003,0.3093,0.3109,0.3125,0.3188,0.3211,0.2939,0.2939,0.2938,0.2938,0,0.3271,0.3279,0.3288,0.33,0.3297,0.3299,0.3272,0.3268,0.3235,0.3211,0.3218,0.3146,0.3139,0.311,0.3075,0.316,0.3156,0.3089,0.3079,0.315,0.3211,0.3233,0.2945,0.2943,0.2942,0.2941,0,0,0.3279,0.3318,0.3319,0.3334,0.3347,0.333,0.3384,0.3388,0.3407,0.3372,0.3405,0.3373,0.3337,0.333,0.3267,0.3309,0.3423,0.3268,0.3268,0.335,0.3557,0.3537,0.3559,0.3373,0.3377,0.338,0.3555,0,0.3325,0.3375,0.3397,0.3437,0.3444,0.345,0.3486,0.35,0.3487,0.3496,0.3479,0.3462,0.3418,0.3392,0.3444,0.3407,0.3489,0.3386,0.3465,0.347,0.3455,0.3586,0.344,0.3583,0.3577,0.3581,0.3583,0,0.3351,0.3379,0.343,0.3473,0.3481,0.3504,0.3541,0.3568,0.3612,0.3609,0.3648,0.3615,0.3676,0.3595,0.3693,0.3631,0.3648,0.3632,0.3636,0.3625,0.3493,0.351,0.3624,0.3457,0.3618,0.3615,0.3613,0,0.3309,0.3384,0.3414,0.3431,0.3485,0.3519,0.3543,0.3595,0.361,0.3675,0.3687,0.3763,0.3749,0.3823,0.3816,0.3768,0.392,0.3821,0.3845,0.3843,0.3746,0.3728,0.3729,0.3955,0.3954,0.3954,0.3953,0,0.3303,0.3315,0.3386,0.3389,0.3426,0.3484,0.3521,0.3564,0.3625,0.3652,0.3722,0.3747,0.3807,0.3877,0.3902,0.3968,0.3998,0.3943,0.3911,0.3764,0.3747,0.3615,0.3564,0.396,0.3959,0.3957,0.3956,0,0.322,0.3272,0.3298,0.3373,0.3393,0.3407,0.348,0.3504,0.3575,0.3621,0.3645,0.3749,0.3861,0.394,0.4033,0.4039,0.3993,0.412,0.3965,0.3914,0.377,0.3729,0.369,0.3586,0.4206,0.4207,0.4208,0,0.3173,0.318,0.3256,0.3268,0.3293,0.3334,0.3362,0.3453,0.3484,0.3607,0.362,0.3758,0.3841,0.4013,0.4085,0.4206,0.4023,0.4103,0.3991,0.382,0.3749,0.3585,0.3486,0.3887,0.3885,0.3884,0.3883,0,0.3079,0.3108,0.3127,0.3165,0.3191,0.3239,0.3288,0.3306,0.342,0.3484,0.3576,0.3662,0.3859,0.3927,0.4087,0.4113,0.389,0.4075,0.3923,0.3573,0.3372,0.3232,0.3726,0.3868,0.387,0.3871,0.3872,0.3872,0.2981,0.2987,0.3017,0.3043,0.3078,0.3115,0.3118,0.3192,0.3246,0.3321,0.3484,0.358,0.3716,0.3938,0.3938,0.3822,0.3845,0.3691,0.3684,0.3553,0.3371,0.3873,0.3945,0.3947,0.3949,0.395,0.3951,0,0.2849,0.2875,0.2897,0.2921,0.2919,0.2992,0.3038,0.3028,0.3059,0.3205,0.3308,0.3441,0.3497,0.3548,0.3559,0.344,0.3253,0.3307,0.3012,0.2957,0.3425,0.3322,0.3229,0.3229,0.3229,0.323,0.323,0.323,0.2773,0.2746,0.278,0.2745,0.2771,0.2739,0.2752,0.2757,0.2828,0.289,0.2967,0.3109,0.3197,0.3235,0.3086,0.3011,0.2754,0.2671,0.2654,0.2935,0.2966,0.2996,0.2882,0.2699,0.2698,0.2017,0.2012,0.2008]},{"header":{"parameterUnit":"m.s-1","parameterCategory":2,"la1":30.2991,"la2":30.254,"lo1":-89.0895,"lo2":-89.0444,"dx":0.0017,"dy":0.0017,"nx":28,"ny":28,"refTime":"2022-11-05T15:00:00:Z","depth":"0","parameterNumber":3,"parameterNumberName":"V-component_of_CURRENTS"},"data":[0,0,0,0,0,0,0,0,0,0,0,0,0,0,0,0,0,0,0,0,0,0,0,0,0,0,0,0,0,0,0,0,0,0,0,0,0,0,0,0,0,0,0,0,0,0,0,0,0,0,0,0,0,0,0,0,0,0,0.0052,0.0051,0,-0.0045,-0.0046,-0.0047,-0.0092,-0.0091,-0.0091,-0.0091,-0.0202,-0.0205,-0.0208,0,0,0,0,0,0,0,0,0,0,0,0,0,0.0113,0.0113,0.0052,0.005,0.0049,-0.0045,-0.0046,-0.0047,-0.0092,-0.0091,-0.0091,-0.0091,-0.0201,-0.0204,-0.0208,0,0,0,0,0,0,0,0,0,0,0,0,0,0.0059,0.0113,0.0052,0.0016,0.0011,-0.0045,-0.0046,-0.0048,-0.0092,-0.0091,-0.0091,-0.0091,-0.02,-0.0204,-0.0208,-0.0238,0,0,-0.0222,-0.0224,0,0,0,0,0,0,0,0,0.0062,0.0057,0.0022,0.0018,0.0013,-0.0056,-0.0065,-0.0112,-0.0092,-0.0052,-0.0091,-0.0091,-0.0155,-0.0163,-0.0181,-0.0243,-0.0248,-0.0222,-0.0225,-0.0227,-0.0228,0,0,0,0,0,0,0,0.0066,0.006,0.0014,0.0021,0.0015,-0.0025,-0.0032,-0.0074,-0.0103,-0.0056,-0.0059,-0.007,-0.0157,-0.0176,-0.0183,-0.0249,-0.0222,-0.0226,-0.0229,-0.0231,-0.0336,-0.0336,0,0,0,0,0,0,0.0082,0.0064,0.0017,0.0011,0.0038,-0.0026,-0.0033,-0.0034,-0.0102,-0.0112,-0.007,-0.0072,-0.0168,-0.0178,-0.0188,-0.0195,-0.0227,-0.0231,-0.0234,-0.0335,-0.0336,-0.0336,0,0,0,0,0,0,0.0084,0.0079,0.0021,0.0034,0.0024,-0.0026,-0.0027,-0.0036,-0.0049,-0.0113,-0.0124,-0.0073,-0.0169,-0.0181,-0.0222,-0.0201,-0.0233,-0.0237,-0.0335,-0.0335,-0.0336,-0.023,0,0,0,0,0,0,0.0086,0.0081,0.0086,0.0036,0.0024,0.0004,-0.0027,-0.0038,-0.0057,-0.006,-0.012,-0.013,-0.017,-0.0215,-0.0226,-0.0207,-0.0241,-0.0335,-0.0335,-0.0336,-0.0233,-0.0226,-0.0221,0,0,0,0,0,0.0089,0.0098,0.0087,0.0081,0.0033,0.0004,-0.0005,-0.0041,-0.0056,-0.0054,-0.0102,-0.0128,-0.0224,-0.0219,-0.0232,-0.0214,-0.0335,-0.0335,-0.0336,-0.0236,-0.0228,-0.0221,0,0,0,0,0,0,0.0118,0.0093,0.008,0.0078,0.0051,-0.0003,-0.0008,-0.0034,-0.0071,-0.0072,-0.0133,-0.0147,-0.0178,-0.0216,-0.0209,-0.0248,-0.0282,-0.0285,-0.0202,-0.0195,-0.0189,-0.0124,-0.0245,0,0,0,0,0,0.013,0.0136,0.0099,0.0096,0.0089,0.0043,0.0026,0.0005,-0.0036,-0.0052,-0.0097,-0.0146,-0.0192,-0.0207,-0.0257,-0.0274,-0.0281,-0.0273,-0.0266,-0.026,-0.0219,-0.0238,-0.0228,-0.0336,-0.0336,-0.0336,0,0,0.0137,0.0125,0.0125,0.0104,0.0079,0.0094,0.0034,0.002,0.0035,-0.0059,-0.0059,-0.0131,-0.0196,-0.0219,-0.0235,-0.0243,-0.0232,-0.0261,-0.0255,-0.0216,-0.0237,-0.0226,-0.0216,-0.0336,-0.0336,-0.0336,0,0,0.0176,0.015,0.0182,0.0173,0.0152,0.0125,0.0129,0.0086,0.0072,0.0049,-0.0015,-0.0067,-0.0133,-0.0169,-0.0198,-0.0186,-0.0207,-0.0209,-0.011,-0.013,-0.012,-0.0111,-0.009,-0.008,-0.0194,-0.0194,-0.0194,0,0.0189,0.0224,0.0182,0.0218,0.0218,0.0152,0.0189,0.0169,0.0118,0.0111,0.0067,-0.0029,-0.0101,-0.0112,-0.0114,-0.0166,-0.0166,-0.013,-0.0117,-0.0109,-0.0102,-0.0082,-0.0072,-0.0189,-0.019,-0.019,-0.0191,0,0.0272,0.0291,0.0306,0.0336,0.033,0.0341,0.0315,0.0309,0.0268,0.0237,0.0202,0.01,0.0051,0.0007,-0.005,-0.0036,-0.0046,-0.0114,-0.0124,-0.0083,-0.0067,-0.0058,-0.0182,-0.0184,-0.0185,-0.0186,0,0,0.0313,0.0358,0.0363,0.0385,0.0393,0.0385,0.0427,0.0425,0.0441,0.0383,0.0399,0.0298,0.0236,0.0201,0.0115,0.0095,0.0122,0.0029,0.0026,0.0076,0.0123,0.0088,0.0093,0.006,0.0062,0.0063,0.0122,0,0.0387,0.0464,0.0478,0.0535,0.0558,0.0536,0.057,0.0561,0.0528,0.0525,0.0444,0.0402,0.0315,0.0272,0.0252,0.014,0.0147,0.0116,0.0056,0.0056,0.0039,0.0101,0.0095,0.0145,0.013,0.0131,0.0132,0,0.0466,0.0501,0.0574,0.0609,0.0621,0.065,0.0669,0.0694,0.0691,0.0663,0.0644,0.0571,0.0543,0.0436,0.0368,0.0355,0.0273,0.0194,0.0192,0.0137,0.0035,0.0095,0.016,-0.0005,0.0144,0.0143,0.0142,0,0.0473,0.0558,0.0606,0.0623,0.0666,0.0695,0.0716,0.0726,0.0733,0.0749,0.0737,0.0717,0.0662,0.0597,0.0447,0.0412,0.0367,0.0284,0.0197,0.0195,0.017,0.0162,0.0092,0.026,0.026,0.026,0.026,0,0.0517,0.0548,0.061,0.0626,0.0674,0.0709,0.0747,0.077,0.0798,0.0811,0.0797,0.0791,0.069,0.0641,0.053,0.0413,0.044,0.0259,0.0214,0.0205,0.02,0.0035,-0.0061,0.0262,0.0261,0.0261,0.0261,0,0.048,0.0535,0.0577,0.0645,0.0666,0.0687,0.0741,0.0769,0.0806,0.0831,0.0838,0.084,0.0803,0.0718,0.0598,0.0488,0.0298,0.0329,0.0353,0.0309,0.0067,-0.0022,-0.0091,-0.0165,0.0277,0.0276,0.0276,0,0.0458,0.0482,0.0557,0.0579,0.0604,0.0648,0.068,0.0745,0.0776,0.0846,0.0857,0.086,0.0871,0.0743,0.0583,0.0469,0.0289,0.033,0.0244,0.0095,-0.0038,-0.0099,-0.0161,0.0265,0.0265,0.0265,0.0264,0,0.04,0.0429,0.0463,0.052,0.0558,0.0611,0.067,0.0705,0.0794,0.0849,0.0927,0.0964,0.0874,0.079,0.0621,0.0484,0.0214,0.0315,0.0147,-0.0042,-0.0095,-0.0202,0.0207,0.0261,0.0261,0.0262,0.0262,0.0262,0.0334,0.0346,0.0405,0.0456,0.0511,0.0591,0.0653,0.0741,0.0835,0.1,0.1002,0.116,0.0981,0.0778,0.0552,0.0164,0.017,0.0031,-0.0053,-0.0091,-0.02,0.0226,0.0217,0.0217,0.0217,0.0217,0.0217,0,0.0263,0.0301,0.0342,0.0427,0.0496,0.0544,0.0663,0.077,0.0921,0.1122,0.1248,0.1333,0.104,0.0735,0.0223,-0.0114,-0.0255,-0.0313,-0.0408,-0.0448,-0.0075,-0.0118,-0.0184,-0.0184,-0.0184,-0.0184,-0.0184,-0.0184,0.0221,0.0252,0.0298,0.0401,0.0475,0.0611,0.0702,0.0879,0.1073,0.1388,0.1608,0.1737,0.1498,0.0457,-0.029,-0.0489,-0.0722,-0.0769,-0.0887,-0.0661,-0.0636,-0.0612,-0.0676,-0.0858,-0.0859,-0.1221,-0.1225,-0.1228]}],[{"header":{"parameterUnit":"m.s-1","parameterCategory":2,"la1":30.2991,"la2":30.254,"lo1":-89.0895,"lo2":-89.0444,"dx":0.0017,"dy":0.0017,"nx":28,"ny":28,"refTime":"2022-11-05T15:00:00:Z","depth":"2","parameterNumber":2,"parameterNumberName":"U-component_of_CURRENTS"},"data":[0,0,0,0,0,0,0,0,0,0,0,0,0,0,0,0,0,0,0,0,0,0,0,0,0,0,0,0,0,0,0,0,0,0,0,0,0,0,0,0,0,0,0,0,0,0,0,0,0,0,0,0,0,0,0,0,0,0,0.2168,0.2169,0,0.2311,0.2313,0.2315,0.2435,0.2435,0.2436,0.2437,0.25,0.2501,0.2503,0,0,0,0,0,0,0,0,0,0,0,0,0,0.2225,0.2223,0.2168,0.2169,0.217,0.2311,0.2313,0.2316,0.2435,0.2436,0.2436,0.2437,0.25,0.2501,0.2503,0,0,0,0,0,0,0,0,0,0,0,0,0,0.2274,0.2222,0.2168,0.2241,0.2249,0.231,0.2313,0.2317,0.2435,0.2436,0.2436,0.2437,0.25,0.2501,0.2503,0.2495,0,0,0.2508,0.2509,0,0,0,0,0,0,0,0,0.2271,0.2272,0.2229,0.2236,0.2244,0.235,0.2357,0.237,0.2434,0.2372,0.2437,0.2438,0.2437,0.2444,0.248,0.2498,0.25,0.2508,0.2509,0.251,0.251,0,0,0,0,0,0,0,0.2267,0.2268,0.2232,0.223,0.2239,0.2344,0.2351,0.2362,0.2402,0.2377,0.2384,0.2388,0.2442,0.2479,0.2482,0.2501,0.2508,0.251,0.2511,0.2511,0.2608,0.261,0,0,0,0,0,0,0.2221,0.2263,0.2227,0.2236,0.2252,0.2341,0.2349,0.2321,0.2403,0.2416,0.2387,0.2393,0.2475,0.248,0.2485,0.2559,0.251,0.2511,0.2512,0.2607,0.2609,0.261,0,0,0,0,0,0,0.2221,0.2215,0.2222,0.225,0.2257,0.2336,0.2306,0.2323,0.2367,0.2411,0.2423,0.2413,0.2476,0.2482,0.2536,0.2558,0.2512,0.2514,0.2605,0.2607,0.261,0.2654,0,0,0,0,0,0,0.2222,0.2213,0.2202,0.2245,0.2253,0.2265,0.2305,0.2325,0.2363,0.2373,0.2435,0.2443,0.2477,0.2534,0.2538,0.256,0.2515,0.2603,0.2606,0.2609,0.2651,0.2658,0.2664,0,0,0,0,0,0.2223,0.2243,0.22,0.2197,0.2225,0.2264,0.228,0.2347,0.2363,0.2389,0.245,0.2442,0.2555,0.2537,0.2541,0.2564,0.2601,0.2605,0.2609,0.2648,0.2657,0.2664,0,0,0,0,0,0,0.2296,0.2256,0.2212,0.2221,0.2221,0.2282,0.2341,0.234,0.241,0.2428,0.2464,0.2477,0.2535,0.2538,0.2517,0.2602,0.2574,0.2579,0.2603,0.2611,0.2617,0.2635,0.2516,0,0,0,0,0,0.2282,0.2278,0.2238,0.2253,0.2251,0.2276,0.2307,0.232,0.2373,0.2407,0.2454,0.2504,0.2551,0.2572,0.2615,0.2649,0.2653,0.2666,0.2673,0.2678,0.2697,0.2693,0.27,0.2622,0.2622,0.2622,0,0,0.2315,0.2298,0.2294,0.2266,0.229,0.2315,0.2303,0.2344,0.2382,0.2396,0.2504,0.2527,0.2566,0.2634,0.2656,0.2639,0.2712,0.2683,0.2687,0.2704,0.2697,0.2705,0.2711,0.2624,0.2624,0.2624,0,0,0.2397,0.2355,0.2366,0.2366,0.2359,0.2371,0.2365,0.2395,0.243,0.2492,0.2524,0.2568,0.2641,0.2683,0.2709,0.2766,0.2748,0.2764,0.2809,0.2804,0.281,0.2816,0.2864,0.2873,0.2764,0.2764,0.2764,0,0.2429,0.2415,0.2388,0.2407,0.2422,0.2388,0.2409,0.2448,0.2498,0.2521,0.2537,0.2652,0.2677,0.2745,0.2785,0.2782,0.2787,0.2774,0.2811,0.2816,0.2821,0.2869,0.2878,0.2766,0.2766,0.2766,0.2765,0,0.2496,0.2493,0.2526,0.2511,0.2533,0.2553,0.2553,0.2582,0.2605,0.2628,0.2695,0.2742,0.2806,0.2811,0.2829,0.2869,0.2868,0.2819,0.2787,0.2831,0.288,0.2889,0.277,0.2769,0.2768,0.2768,0,0,0.2516,0.2548,0.2555,0.2536,0.257,0.2572,0.2654,0.2672,0.2699,0.2758,0.281,0.2898,0.2895,0.2923,0.2921,0.2922,0.2975,0.2891,0.2889,0.2934,0.3001,0.2924,0.2927,0.2914,0.2915,0.2916,0.3034,0,0.2549,0.258,0.261,0.2646,0.264,0.2657,0.2728,0.2753,0.2791,0.2842,0.2871,0.2931,0.2943,0.2956,0.2971,0.2978,0.2995,0.295,0.2957,0.2959,0.2878,0.2932,0.2706,0.2783,0.3042,0.3044,0.3045,0,0.256,0.2577,0.2608,0.2635,0.2638,0.2682,0.2724,0.2779,0.2854,0.2888,0.2954,0.2976,0.3052,0.3009,0.3084,0.3052,0.3044,0.3034,0.3036,0.2953,0.2897,0.2775,0.2789,0.306,0.3058,0.3057,0.3056,0,0.2497,0.2556,0.2567,0.2581,0.2634,0.2667,0.2711,0.2792,0.2825,0.2915,0.2945,0.3035,0.3075,0.3096,0.3138,0.3103,0.3183,0.3124,0.3055,0.3052,0.2859,0.2835,0.3138,0.3138,0.3138,0.3137,0.3137,0,0.2461,0.2458,0.2535,0.2526,0.2549,0.2623,0.2669,0.2722,0.2817,0.2861,0.2958,0.2999,0.3084,0.3144,0.3164,0.3175,0.322,0.3091,0.307,0.2872,0.285,0.3074,0.3065,0.3142,0.3141,0.314,0.3139,0,0.2343,0.24,0.2399,0.2477,0.2505,0.2517,0.2627,0.2658,0.2768,0.283,0.2862,0.2991,0.308,0.3159,0.321,0.3196,0.321,0.3181,0.2982,0.2933,0.3084,0.3076,0.3134,0.3132,0.313,0.3129,0.3128,0,0.2258,0.2261,0.2339,0.2355,0.2388,0.2445,0.2489,0.2612,0.2661,0.2814,0.2829,0.2946,0.2993,0.3096,0.3088,0.3125,0.318,0.293,0.2802,0.3106,0.3081,0.3075,0.307,0.2594,0.2589,0.2584,0.2581,0,0.2111,0.2167,0.2179,0.2249,0.2291,0.2327,0.2411,0.2436,0.259,0.2636,0.2732,0.2781,0.2876,0.2812,0.286,0.2845,0.2915,0.2838,0.3197,0.2616,0.2601,0.2575,0.2587,0.2541,0.2545,0.2548,0.255,0.2552,0.2011,0.2013,0.2094,0.214,0.2188,0.2231,0.2241,0.2318,0.2365,0.2405,0.253,0.2516,0.258,0.2503,0.2475,0.2484,0.2657,0.2569,0.2581,0.2598,0.25,0.248,0.2385,0.2388,0.239,0.2392,0.2394,0,0.1924,0.1969,0.1995,0.2063,0.2076,0.2161,0.2202,0.2141,0.215,0.2193,0.2212,0.2027,0.1997,0.2091,0.2028,0.2055,0.2013,0.2001,0.1931,0.1973,0.201,0.1879,0.1601,0.1599,0.1596,0.1593,0,0,0.1887,0.1906,0.1942,0.1958,0.2011,0.1994,0.2004,0.19,0.1871,0.1748,0.1737,0.181,0.1975,0.1707,0.1723,0.1656,0.1784,0.1594,0.2236,0.2193,0.2225,0.2356,0.2204,0,0,0,0,0]},{"header":{"parameterUnit":"m.s-1","parameterCategory":2,"la1":30.2991,"la2":30.254,"lo1":-89.0895,"lo2":-89.0444,"dx":0.0017,"dy":0.0017,"nx":28,"ny":28,"refTime":"2022-11-05T15:00:00:Z","depth":"2","parameterNumber":3,"parameterNumberName":"V-component_of_CURRENTS"},"data":[0,0,0,0,0,0,0,0,0,0,0,0,0,0,0,0,0,0,0,0,0,0,0,0,0,0,0,0,0,0,0,0,0,0,0,0,0,0,0,0,0,0,0,0,0,0,0,0,0,0,0,0,0,0,0,0,0,0,0.0073,0.0073,0,-0.0016,-0.0018,-0.002,-0.0112,-0.0113,-0.0114,-0.0114,-0.0262,-0.0265,-0.0268,0,0,0,0,0,0,0,0,0,0,0,0,0,-0.0004,-0.0002,0.0073,0.0073,0.0072,-0.0016,-0.0018,-0.002,-0.0112,-0.0113,-0.0114,-0.0115,-0.0261,-0.0265,-0.0268,0,0,0,0,0,0,0,0,0,0,0,0,0,-0.0025,-0.0001,0.0073,0.002,0.0015,-0.0016,-0.0018,-0.002,-0.0112,-0.0113,-0.0114,-0.0115,-0.0259,-0.0264,-0.0269,-0.0278,0,0,-0.0284,-0.0286,0,0,0,0,0,0,0,0,-0.0024,-0.0023,0.0028,0.0024,0.0018,-0.0049,-0.0099,-0.0107,-0.0112,-0.007,-0.0114,-0.0116,-0.0191,-0.0202,-0.0224,-0.0285,-0.0292,-0.0284,-0.0287,-0.029,-0.0291,0,0,0,0,0,0,0,-0.0022,-0.0021,0.0031,0.0028,0.0022,-0.0057,-0.006,-0.0102,-0.013,-0.0074,-0.0079,-0.0079,-0.0195,-0.0219,-0.0228,-0.0294,-0.0284,-0.0289,-0.0292,-0.0294,-0.0402,-0.0402,0,0,0,0,0,0,0.0013,-0.0018,0.0034,0.0029,0.0001,-0.0053,-0.0057,-0.0031,-0.0128,-0.0142,-0.0078,-0.0083,-0.021,-0.0223,-0.0234,-0.0282,-0.029,-0.0294,-0.0297,-0.0402,-0.0402,-0.0402,0,0,0,0,0,0,0.0012,0.0019,0.0038,0.0006,0.0004,-0.0049,-0.002,-0.0032,-0.0055,-0.0129,-0.0146,-0.0087,-0.0212,-0.0227,-0.0285,-0.0287,-0.0296,-0.0301,-0.0402,-0.0402,-0.0402,-0.0357,0,0,0,0,0,0,0.001,0.002,0.0036,0.001,0.0008,0.0027,-0.0019,-0.0033,-0.005,-0.0058,-0.0142,-0.0157,-0.0214,-0.0277,-0.029,-0.0294,-0.0305,-0.0403,-0.0402,-0.0402,-0.0359,-0.0355,-0.0353,0,0,0,0,0,0.0008,0.001,0.0038,0.0043,0.0038,0.0029,0.0019,-0.0029,-0.0049,-0.0055,-0.0124,-0.0155,-0.0285,-0.0281,-0.0296,-0.0302,-0.0403,-0.0402,-0.0402,-0.036,-0.0356,-0.0353,0,0,0,0,0,0,-0.0032,0.0002,0.0031,0.0043,0.0055,0.0015,-0.001,-0.0017,-0.0074,-0.0092,-0.0161,-0.0181,-0.023,-0.0267,-0.0261,-0.0331,-0.0346,-0.0348,-0.0308,-0.0305,-0.0302,-0.0287,-0.0309,0,0,0,0,0,-0.0016,-0.0,0.0032,0.0041,0.0051,0.0035,0.0021,0.0007,-0.0037,-0.0064,-0.0124,-0.0188,-0.024,-0.0273,-0.0325,-0.0363,-0.0376,-0.0374,-0.0371,-0.0368,-0.0365,-0.0378,-0.0376,-0.0402,-0.0402,-0.0402,0,0,-0.0028,-0.001,0.0001,0.0035,0.003,0.0035,0.002,0.0008,-0.0004,-0.007,-0.0134,-0.0179,-0.0246,-0.0299,-0.0322,-0.0332,-0.0367,-0.0368,-0.0365,-0.0364,-0.0378,-0.0375,-0.0373,-0.0402,-0.0402,-0.0402,0,0,-0.0047,-0.0018,-0.0001,0.001,0.0029,0.0021,0.0032,0.0015,-0.001,-0.0049,-0.0105,-0.015,-0.0235,-0.0283,-0.0317,-0.0324,-0.0347,-0.0334,-0.0315,-0.0328,-0.0325,-0.0324,-0.0329,-0.0329,-0.0336,-0.0336,-0.0336,0,-0.0053,-0.0018,-0.0003,0.0011,0.0015,0.0025,0.004,0.0016,-0.0025,-0.0041,-0.0067,-0.0175,-0.023,-0.0282,-0.0292,-0.0317,-0.0323,-0.0324,-0.0322,-0.0321,-0.032,-0.0327,-0.0326,-0.0334,-0.0334,-0.0334,-0.0335,0,-0.0047,-0.0024,-0.0027,0.0011,0.0011,0.0019,0.002,0.0007,-0.0016,-0.0037,-0.0085,-0.0156,-0.0214,-0.0235,-0.0275,-0.0292,-0.0297,-0.0313,-0.0328,-0.0314,-0.0323,-0.0323,-0.0331,-0.0331,-0.0332,-0.0333,0,0,-0.0026,-0.0014,-0.0009,0.0014,0.0019,0.0028,0.0005,0.0008,0.0007,-0.0047,-0.0058,-0.0151,-0.0167,-0.0205,-0.0244,-0.0264,-0.0265,-0.0282,-0.0284,-0.0281,-0.0282,-0.0269,-0.0268,-0.0275,-0.0275,-0.0275,-0.0288,0,-0.0006,0.002,0.0015,0.0034,0.0054,0.0046,0.0032,0.0022,0.0001,-0.0017,-0.0072,-0.0108,-0.016,-0.0174,-0.0203,-0.0246,-0.0264,-0.0259,-0.0302,-0.0303,-0.0287,-0.0268,-0.025,-0.0259,-0.0288,-0.0289,-0.0289,0,0.0025,0.0037,0.0064,0.0074,0.0084,0.0083,0.0088,0.0082,0.0053,0.0033,-0.0007,-0.0044,-0.0091,-0.0125,-0.0196,-0.0186,-0.023,-0.0265,-0.0266,-0.027,-0.029,-0.028,-0.0259,-0.029,-0.0289,-0.0289,-0.0289,0,0.0056,0.0075,0.0099,0.0103,0.011,0.0112,0.0113,0.0094,0.0113,0.0075,0.0085,0.0012,0.0002,-0.0073,-0.0146,-0.017,-0.0203,-0.0247,-0.0278,-0.0278,-0.0281,-0.028,-0.0289,-0.0289,-0.0289,-0.0289,-0.0289,0,0.0088,0.011,0.0117,0.0132,0.017,0.0151,0.0183,0.0171,0.0175,0.022,0.0124,0.0154,0.002,-0.0014,-0.0109,-0.0178,-0.0175,-0.0266,-0.0278,-0.0264,-0.0262,-0.0307,-0.0309,-0.029,-0.0289,-0.0289,-0.0289,0,0.0133,0.0129,0.0168,0.0181,0.0189,0.022,0.0251,0.0284,0.0263,0.0325,0.0323,0.0273,0.0231,0.0106,0.0004,-0.0107,-0.0193,-0.0217,-0.0186,-0.0194,-0.0276,-0.0275,-0.0275,-0.0274,-0.0274,-0.0273,-0.0273,0,0.0165,0.0189,0.0224,0.026,0.0271,0.0307,0.0344,0.0333,0.038,0.0421,0.047,0.0439,0.0467,0.0302,0.009,-0.0075,-0.0115,-0.0188,-0.0244,-0.0262,-0.0273,-0.0273,-0.0273,-0.0231,-0.0231,-0.023,-0.023,0,0.0243,0.0252,0.0289,0.0361,0.0403,0.0461,0.0509,0.057,0.0592,0.0664,0.0776,0.0806,0.0619,0.0457,0.0186,0.0057,-0.017,-0.0183,-0.0198,-0.0234,-0.0221,-0.0232,-0.0234,-0.0226,-0.0226,-0.0227,-0.0227,-0.0227,0.0318,0.0365,0.0415,0.0489,0.0538,0.0633,0.0714,0.0793,0.0926,0.1046,0.1031,0.1054,0.078,0.0451,0.021,-0.0094,-0.0095,-0.0217,-0.0218,-0.022,-0.0209,-0.0196,-0.0194,-0.0194,-0.0194,-0.0194,-0.0194,0,0.0434,0.0472,0.0546,0.0637,0.0731,0.071,0.0844,0.0957,0.116,0.1204,0.1304,0.1075,0.0862,0.0539,0.0099,-0.0148,-0.0192,-0.0226,-0.0235,-0.0236,-0.0238,-0.0229,-0.0219,-0.022,-0.0221,-0.0221,0,0,0.0504,0.06,0.0633,0.0806,0.0859,0.0991,0.1083,0.124,0.1312,0.142,0.1376,0.1309,0.0919,0.06,0.0265,0.002,-0.0054,-0.0029,0.0017,0.0045,0.0046,-0.0206,-0.019,0,0,0,0,0]}],[{"header":{"parameterUnit":"m.s-1","parameterCategory":2,"la1":30.2991,"la2":30.254,"lo1":-89.0895,"lo2":-89.0444,"dx":0.0017,"dy":0.0017,"nx":28,"ny":28,"refTime":"2022-11-05T15:00:00:Z","depth":"4","parameterNumber":2,"parameterNumberName":"U-component_of_CURRENTS"},"data":[0,0,0,0,0,0,0,0,0,0,0,0,0,0,0,0,0,0,0,0,0,0,0,0,0,0,0,0,0,0,0,0,0,0,0,0,0,0,0,0,0,0,0,0,0,0,0,0,0,0,0,0,0,0,0,0,0,0,0.0993,0.0994,0,0.099,0.0989,0.0988,0.1011,0.1013,0.1014,0.1016,0.1118,0.1119,0.1121,0,0,0,0,0,0,0,0,0,0,0,0,0,0.0799,0.0803,0.0993,0.0994,0.0995,0.099,0.0989,0.0988,0.1011,0.1013,0.1015,0.1016,0.1118,0.1119,0.1121,0,0,0,0,0,0,0,0,0,0,0,0,0,0.084,0.0804,0.0993,0.1012,0.1015,0.099,0.0989,0.0988,0.1011,0.1013,0.1015,0.1017,0.1117,0.1119,0.1121,0.1089,0,0,0.1127,0.1128,0,0,0,0,0,0,0,0,0.0838,0.0846,0.1009,0.1011,0.1014,0.1011,0.0959,0.103,0.101,0.1003,0.1016,0.1018,0.1096,0.11,0.108,0.1094,0.1099,0.1127,0.1129,0.113,0.113,0,0,0,0,0,0,0,0.0835,0.0845,0.0983,0.101,0.1013,0.0946,0.0955,0.097,0.1032,0.1003,0.1007,0.1021,0.1098,0.1078,0.1083,0.11,0.1127,0.1129,0.113,0.1131,0.1234,0.1236,0,0,0,0,0,0,0.0864,0.0844,0.0983,0.0984,0.094,0.0949,0.0959,0.1002,0.103,0.1038,0.1019,0.1022,0.1074,0.1081,0.1087,0.12,0.113,0.1131,0.1133,0.1233,0.1235,0.1236,0,0,0,0,0,0,0.086,0.0877,0.0983,0.0918,0.0929,0.0953,0.0999,0.1001,0.1031,0.1042,0.1051,0.1054,0.1076,0.1085,0.1142,0.1199,0.1132,0.1134,0.1231,0.1233,0.1235,0.1331,0,0,0,0,0,0,0.0855,0.0877,0.091,0.0922,0.0934,0.1004,0.0998,0.1,0.1038,0.1043,0.1074,0.1083,0.1078,0.1139,0.1144,0.1201,0.1136,0.1229,0.1232,0.1235,0.1326,0.1337,0.1345,0,0,0,0,0,0.0848,0.0883,0.0912,0.0928,0.0983,0.1006,0.1005,0.102,0.1038,0.1054,0.1081,0.1084,0.1161,0.1142,0.1148,0.1206,0.1228,0.1231,0.1234,0.1322,0.1334,0.1345,0,0,0,0,0,0,0.08,0.089,0.0922,0.098,0.1013,0.1015,0.102,0.1045,0.1072,0.1084,0.11,0.111,0.1165,0.1174,0.1153,0.1242,0.1197,0.1201,0.1261,0.1273,0.1282,0.124,0.1138,0,0,0,0,0,0.0812,0.0871,0.0932,0.0975,0.0996,0.1018,0.103,0.1052,0.1079,0.1093,0.1129,0.1158,0.1171,0.1218,0.1214,0.1282,0.1264,0.1322,0.1332,0.134,0.1309,0.1352,0.1362,0.1247,0.1247,0.1247,0,0,0.079,0.0858,0.0882,0.0969,0.0985,0.101,0.1029,0.1063,0.1101,0.1101,0.1168,0.1178,0.1185,0.1239,0.1271,0.1273,0.1367,0.1345,0.1352,0.1315,0.1356,0.1367,0.1377,0.125,0.1249,0.1249,0,0,0.0784,0.0853,0.0902,0.0939,0.1006,0.1016,0.1046,0.1094,0.1138,0.1171,0.1199,0.1243,0.1268,0.131,0.132,0.1383,0.1388,0.1415,0.1471,0.1515,0.1525,0.1533,0.1538,0.1546,0.1457,0.1457,0.1457,0,0.0769,0.0842,0.0908,0.0962,0.0977,0.1031,0.1054,0.1101,0.1171,0.1204,0.1196,0.1246,0.1274,0.1358,0.139,0.1403,0.1424,0.1433,0.1528,0.1536,0.1542,0.1545,0.1553,0.1462,0.1462,0.1461,0.1461,0,0.0785,0.0852,0.0873,0.0965,0.0986,0.1012,0.1085,0.1152,0.1182,0.1204,0.1275,0.1307,0.1339,0.1386,0.14,0.1507,0.1504,0.1509,0.15,0.156,0.1559,0.1565,0.147,0.1468,0.1466,0.1465,0,0,0.0752,0.0867,0.0884,0.0915,0.0989,0.1005,0.1086,0.115,0.1193,0.1258,0.1301,0.1359,0.1389,0.1405,0.1487,0.1558,0.1639,0.1582,0.1582,0.1586,0.1733,0.1644,0.1641,0.1696,0.1697,0.1698,0.1719,0,0.0751,0.0833,0.0889,0.0928,0.0953,0.1024,0.1071,0.1141,0.1183,0.125,0.1326,0.1357,0.1406,0.1442,0.1527,0.1604,0.1658,0.1631,0.1672,0.167,0.1585,0.1645,0.1702,0.1723,0.1724,0.1725,0.1726,0,0.0751,0.0809,0.085,0.0913,0.0928,0.096,0.1025,0.1096,0.1206,0.1244,0.132,0.1338,0.1477,0.1478,0.1632,0.1631,0.1674,0.1718,0.172,0.1593,0.1591,0.1646,0.1735,0.1735,0.1734,0.1733,0.1733,0,0.0673,0.0777,0.0801,0.0822,0.09,0.0947,0.1006,0.109,0.1161,0.1275,0.1303,0.14,0.15,0.1555,0.1644,0.1653,0.1773,0.1783,0.1726,0.172,0.175,0.1741,0.1835,0.1835,0.1835,0.1835,0.1834,0,0.0636,0.0669,0.0781,0.0795,0.0823,0.0906,0.095,0.1048,0.1166,0.1214,0.133,0.1388,0.1533,0.1606,0.1643,0.1707,0.1769,0.1715,0.1722,0.1791,0.1787,0.1755,0.1745,0.1835,0.1835,0.1835,0.1835,0,0.0555,0.0626,0.0667,0.0763,0.0792,0.0832,0.0951,0.0999,0.114,0.1228,0.1266,0.1439,0.1544,0.1628,0.1731,0.1728,0.1752,0.1747,0.1793,0.1804,0.1662,0.1658,0.1669,0.1666,0.1664,0.1662,0.166,0,0.0523,0.054,0.0634,0.0663,0.0721,0.0793,0.084,0.0984,0.1051,0.1224,0.1274,0.1413,0.1493,0.1596,0.1686,0.172,0.1723,0.1705,0.1691,0.1641,0.1647,0.1647,0.1645,0.1656,0.1656,0.1655,0.1654,0,0.0467,0.0511,0.0548,0.06,0.0661,0.0701,0.0805,0.0839,0.0993,0.1116,0.1234,0.129,0.1439,0.1537,0.1599,0.1613,0.1693,0.1679,0.1684,0.1671,0.1625,0.1634,0.1636,0.1646,0.1647,0.1648,0.1648,0,0.0441,0.0448,0.0504,0.0543,0.0594,0.062,0.0669,0.077,0.0853,0.1059,0.1073,0.1252,0.1395,0.1481,0.1509,0.1545,0.1537,0.1487,0.1502,0.1513,0.1459,0.1378,0.1321,0,0,0,0,0,0.0423,0.0427,0.0451,0.0482,0.052,0.0555,0.0649,0.0711,0.0837,0.0892,0.0987,0.1085,0.1205,0.1319,0.1332,0.144,0.1527,0.1447,0.1471,0.1598,0.1608,0.1564,0,0,0,0,0,0,0.0415,0.0434,0.0431,0.0418,0.043,0.0467,0.0524,0.0607,0.0665,0.0805,0.0904,0.1008,0.1172,0.1186,0.1309,0.1335,0.1326,0.1556,0.1553,0.1593,0.1602,0.161,0.1567,0,0,0,0,0]},{"header":{"parameterUnit":"m.s-1","parameterCategory":2,"la1":30.2991,"la2":30.254,"lo1":-89.0895,"lo2":-89.0444,"dx":0.0017,"dy":0.0017,"nx":28,"ny":28,"refTime":"2022-11-05T15:00:00:Z","depth":"4","parameterNumber":3,"parameterNumberName":"V-component_of_CURRENTS"},"data":[0,0,0,0,0,0,0,0,0,0,0,0,0,0,0,0,0,0,0,0,0,0,0,0,0,0,0,0,0,0,0,0,0,0,0,0,0,0,0,0,0,0,0,0,0,0,0,0,0,0,0,0,0,0,0,0,0,0,0.0254,0.0254,0,0.0283,0.0283,0.0284,0.0298,0.0298,0.0298,0.0298,0.0255,0.0254,0.0253,0,0,0,0,0,0,0,0,0,0,0,0,0,0.0278,0.0277,0.0254,0.0255,0.0255,0.0283,0.0284,0.0284,0.0298,0.0298,0.0298,0.0297,0.0256,0.0255,0.0253,0,0,0,0,0,0,0,0,0,0,0,0,0,0.0284,0.0277,0.0254,0.0264,0.0265,0.0283,0.0284,0.0284,0.0298,0.0298,0.0298,0.0297,0.0256,0.0255,0.0253,0.0247,0,0,0.0248,0.0248,0,0,0,0,0,0,0,0,0.0283,0.0283,0.0263,0.0264,0.0265,0.0286,0.0276,0.0268,0.0298,0.0287,0.0298,0.0297,0.0258,0.0257,0.0265,0.0245,0.0243,0.0248,0.0247,0.0247,0.0246,0,0,0,0,0,0,0,0.0283,0.0282,0.0267,0.0263,0.0264,0.029,0.029,0.0276,0.0272,0.0288,0.0288,0.029,0.0259,0.0267,0.0264,0.0242,0.0248,0.0247,0.0246,0.0245,0.0242,0.0243,0,0,0,0,0,0,0.0274,0.0281,0.0266,0.0267,0.0273,0.029,0.029,0.028,0.0274,0.0274,0.029,0.0291,0.0269,0.0266,0.0262,0.0269,0.0247,0.0245,0.0244,0.0242,0.0243,0.0243,0,0,0,0,0,0,0.0274,0.0272,0.0265,0.0275,0.0276,0.0289,0.0278,0.0281,0.0292,0.0277,0.0275,0.0299,0.0269,0.0264,0.0265,0.0267,0.0245,0.0243,0.0241,0.0242,0.0243,0.0273,0,0,0,0,0,0,0.0274,0.0271,0.0269,0.0274,0.0275,0.0276,0.0278,0.0281,0.0292,0.0293,0.0283,0.0279,0.0268,0.0268,0.0264,0.0264,0.0242,0.0239,0.0241,0.0243,0.0271,0.0275,0.0279,0,0,0,0,0,0.0275,0.0279,0.0268,0.0267,0.0268,0.0276,0.0279,0.0289,0.0293,0.0298,0.0302,0.028,0.0275,0.0268,0.0263,0.0263,0.0239,0.0241,0.0242,0.0269,0.0274,0.0279,0,0,0,0,0,0,0.0299,0.0281,0.0269,0.0269,0.0268,0.0278,0.0291,0.0292,0.0301,0.0303,0.029,0.0287,0.0291,0.0275,0.0268,0.0269,0.0253,0.0254,0.0275,0.0279,0.0283,0.0263,0.0241,0,0,0,0,0,0.0298,0.029,0.0279,0.028,0.028,0.0283,0.0291,0.0292,0.0298,0.0302,0.0299,0.0296,0.0295,0.0286,0.0285,0.0279,0.0241,0.0277,0.0281,0.0284,0.0266,0.0216,0.0213,0.025,0.025,0.025,0,0,0.0313,0.0298,0.0298,0.0284,0.0287,0.0293,0.0288,0.0299,0.0305,0.0294,0.0312,0.0311,0.03,0.0304,0.0303,0.0289,0.0259,0.0287,0.0289,0.0269,0.0218,0.0214,0.021,0.0251,0.0251,0.0251,0,0,0.0334,0.032,0.0317,0.0315,0.0308,0.0309,0.031,0.0316,0.032,0.0332,0.0331,0.0327,0.0331,0.0318,0.0312,0.0332,0.0288,0.034,0.0332,0.0285,0.028,0.0276,0.0239,0.0231,0.0334,0.0334,0.0334,0,0.0348,0.0344,0.0323,0.032,0.0328,0.0315,0.0326,0.0326,0.0335,0.0337,0.0341,0.0343,0.0332,0.0322,0.0333,0.0336,0.0308,0.0315,0.0287,0.0282,0.0277,0.0239,0.023,0.0336,0.0335,0.0335,0.0335,0,0.0363,0.0365,0.0371,0.0356,0.0356,0.0371,0.0358,0.0365,0.0371,0.0367,0.0367,0.0356,0.0352,0.0352,0.0347,0.0315,0.0307,0.0303,0.0269,0.0274,0.0236,0.0226,0.0338,0.0337,0.0337,0.0337,0,0,0.0386,0.0381,0.0385,0.0393,0.0381,0.0389,0.0391,0.0391,0.0405,0.039,0.0394,0.038,0.0367,0.0358,0.0347,0.0298,0.0247,0.0285,0.0282,0.0238,0.0148,0.0152,0.0141,0.0238,0.0236,0.0235,0.0141,0,0.041,0.0423,0.0408,0.0437,0.045,0.0437,0.0446,0.0437,0.0437,0.0439,0.0393,0.04,0.0371,0.0379,0.032,0.0275,0.022,0.0273,0.0158,0.0154,0.0147,0.0128,0.0229,0.0133,0.013,0.0128,0.0127,0,0.0431,0.0439,0.0469,0.0487,0.0491,0.0506,0.0523,0.0533,0.051,0.0502,0.0469,0.0443,0.0377,0.0358,0.0231,0.027,0.0204,0.0154,0.0149,0.0127,0.0137,0.0123,0.0108,0.011,0.0111,0.0112,0.0113,0,0.0468,0.0487,0.052,0.0527,0.0537,0.0554,0.0569,0.0562,0.0579,0.055,0.0549,0.0462,0.0438,0.0324,0.0217,0.0225,0.0072,0.0074,0.0007,0.0008,0.0019,0.0024,-0.0034,-0.0033,-0.0033,-0.0033,-0.0033,0,0.05,0.0529,0.055,0.057,0.0615,0.0609,0.0658,0.0651,0.0655,0.0662,0.0595,0.057,0.0428,0.0329,0.0215,0.0077,0.0066,-0.0012,-0.0026,0.0039,0.0047,0.0012,0.0018,-0.0036,-0.0036,-0.0035,-0.0034,0,0.0527,0.0544,0.0588,0.0619,0.0636,0.0674,0.0721,0.0757,0.0748,0.0753,0.0743,0.0651,0.0517,0.0368,0.019,0.0097,-0.0044,-0.009,-0.001,-0.0015,-0.0077,-0.0068,-0.018,-0.0181,-0.0181,-0.0182,-0.0183,0,0.0536,0.0565,0.0626,0.0657,0.0677,0.0737,0.078,0.0802,0.083,0.0793,0.0789,0.068,0.0591,0.0349,0.0185,-0.0042,-0.0069,-0.014,-0.0124,-0.0095,-0.0097,-0.0086,-0.0076,-0.0184,-0.0184,-0.0184,-0.0184,0,0.055,0.0584,0.0615,0.0687,0.0746,0.0811,0.0867,0.0888,0.0899,0.0891,0.0823,0.0692,0.0543,0.0352,0.0182,0.0017,-0.0097,-0.0148,-0.0148,-0.0133,-0.0101,-0.01,-0.0089,-0.0187,-0.0186,-0.0186,-0.0186,0,0.0561,0.0591,0.0644,0.0707,0.0781,0.085,0.0882,0.0906,0.0935,0.0888,0.086,0.0696,0.0608,0.0381,0.0215,0.006,0.0022,-0.0025,-0.0031,-0.003,0.0041,0.0106,0.0055,0,0,0,0,0,0.0563,0.06,0.0655,0.0727,0.0802,0.0859,0.0919,0.0946,0.095,0.0913,0.089,0.0746,0.0505,0.0407,0.0253,0.019,-0.0014,0.0002,-0.0072,-0.0201,-0.0198,-0.014,0,0,0,0,0,0,0.0566,0.0616,0.0651,0.0734,0.0793,0.0889,0.0939,0.0947,0.0927,0.0899,0.0783,0.0716,0.0493,0.0601,0.0256,0.0207,0.0139,-0.0106,-0.011,-0.0203,-0.02,-0.0198,-0.0137,0,0,0,0,0]}]]